Regional Weather Roundup
Issued by NWS Sterling, VA

Home | Current Version | Previous Version | Text Only | Print | Product List | Glossary Off
Versions: 1 2 3 4 5 6 7 8 9 10 11 12 13 14 15 16 17 18 19 20 21 22 23 24 25 26 27 28

000
ASUS41 KLWX 241010
RWRLWX

REGIONAL WEATHER ROUNDUP
NATIONAL WEATHER SERVICE BALTIMORE MD/WASHINGTON DC
600 AM EDT FRI OCT 24 2014

Note: "FAIR" indicates few or no clouds below 12,000 feet
with no significant weather and/or obstructions to visibility.
 TC=TEMPERATURE CELSIUS

 * =Non NWS site. Station does not report precipitation (e.g. rain,
    snow, etc.), thunder, or fog.

DCZ001-MDZ009-015-VAZ040>042-051-053>054-241100-
WASHINGTON METRO

CITY           SKY/WX    TMP DP  RH WIND       PRES   REMARKS
WASHINGTON NAT CLEAR     56  42  59 W8        29.96R
DULLES         CLEAR     51  42  71 NW10      29.97R
ANDREWS AFB    CLEAR     53  43  67 W13       29.94R
FT BELVOIR     CLEAR     54  42  65 NW13      29.96R
QUANTICO       CLEAR     54  42  64 NW9       29.98R
COLLEGE PARK*  CLEAR     54  43  66 CALM      29.94R
LEESBURG*      CLEAR     52  45  76 N5        29.98R
MANASSAS*      CLEAR     54  45  71 NW14      29.97S
GAITHERSBURG*  CLEAR     50  41  71 W9        29.99R

$$

MDZ006>007-011-014-241100-
BALTIMORE METRO

CITY           SKY/WX    TMP DP  RH WIND       PRES   REMARKS
BWI AIRPORT    PTCLDY    53  42  66 W3        29.92R
MD SCIENCE CTR   N/A     56  42  59 MISG      29.91R
MARTIN STATE   CLEAR    N/A N/A N/A CALM      29.92R
ANNAPOLIS      CLEAR     55  43  63 W5        29.91R
FORT MEADE*    CLEAR     50  43  76 W6        29.95R

$$

MDZ012-015-019>023-241100-
MARYLAND EASTERN SHORE

CITY           SKY/WX    TMP DP  RH WIND       PRES   REMARKS
OCEAN CITY     CLOUDY    54  46  74 NW6       29.87R
SALISBURY      PTCLDY    57  43  59 W7        29.88R
BAY BRIDGE AP*   N/A     54  43  66 NW10      29.91R
CAMBRIDGE*     PTCLDY    57  43  58 NW12G18   29.90R
EASTON*        CLEAR     56  46  69 NW7       29.94R

$$

MDZ017>025-241100-
SOUTHERN MARYLAND

CITY           SKY/WX    TMP DP  RH WIND       PRES   REMARKS
PATUXENT RIVER PTCLDY    54  42  64 NW14      29.92R
ST INIGOES     CLEAR     54  40  59 W8        29.92R
LEONARDTOWN*   CLEAR     50  41  71 W6        29.95R

$$

MDZ003>005-241100-
NORTH CENTRAL MARYLAND

CITY           SKY/WX    TMP DP  RH WIND       PRES   REMARKS
FREDERICK*     CLEAR     55  41  58 W6        29.99R
HAGERSTOWN APT CLEAR     52  42  69 NW12      29.98R
WESTMINSTER*   CLEAR     52  45  76 NW8       29.93R

$$

MDZ501>502-241100-
WESTERN MARYLAND

CITY           SKY/WX    TMP DP  RH WIND       PRES   REMARKS
OAKLAND*       CLOUDY    39 N/A N/A NW8       30.06R HAZE
CUMBERLAND*    CLEAR     52  41  66 NW10G18   30.07S

$$

VAZ025>031-241100-
SHENANDOAH VALLEY

CITY           SKY/WX    TMP DP  RH WIND       PRES   REMARKS
WINCHESTER*    CLEAR     50  37  62 NW7       30.00R
FRONT ROYAL*   FAIR      50  41  71 CALM      30.00R
LURAY*         FAIR      54  43  66 N7        30.01R
NEW MARKET*    FAIR      42  38  83 E3        30.00S
STAUNTON*      CLEAR     37  34  89 CALM      30.04R
WAYNESBORO*    FAIR      45  39  79 SW7       30.02R

$$

WVZ021-048>050-054>055-241100-
EASTERN WEST VIRGINIA PANHANDLE

CITY           SKY/WX    TMP DP  RH WIND       PRES   REMARKS
MARTINSBURG    CLEAR     51  40  65 NW7       30.00R
PETERSBURG*    PTCLDY    40  38  93 CALM      30.05S

$$

VAZ036>039-050-241100-
CENTRAL FOOTHILLS

CITY           SKY/WX    TMP DP  RH WIND       PRES   REMARKS
CHARLOTTESVILL CLEAR     50  40  68 W9        29.98S
CULPEPER*      CLEAR     48  43  81 NW5       29.99R
ORANGE*        CLEAR     45  41  87 CALM      29.99R
GORDONSVILLE*  FAIR      46  41  83 CALM      29.98R
WARRENTON*     FAIR      53  47  81 NW8       29.97S

$$

VAZ055>057-241100-
NORTH AND CENTRAL PIEDMONT

CITY           SKY/WX    TMP DP  RH WIND       PRES   REMARKS
FREDERICKSBRG* CLEAR     55  44  66 N9        29.96S
STAFFORD*      CLEAR     47  41  80 NW5       30.01R

$$

NCZ024-NYZ072-PAZ021-071-VAZ022-071-241100-
OTHER REGIONAL OBSERVATIONS

CITY           SKY/WX    TMP DP  RH WIND       PRES   REMARKS
NEW YORK CITY  MOCLDY    51  42  71 VRB5      29.81S
PHILADELPHIA   MOCLDY    56  44  64 N12       29.85S
PITTSBURGH     MOCLDY    40  38  93 W3        30.08R
ROANOKE        MOCLDY    46  39  76 NW7       30.09R
RICHMOND       CLEAR     50  42  74 NW5       29.98R
RALEIGH        MOCLDY    44  40  85 CALM      30.02S

$$

ANZ530>537-241100-
MARINE OBSERVATIONS

STATION/POSITION TIME  TEMP    WIND        PRES
                       AIR SEA DIR/SP/G
                 (UTC) (F)     (DEG/KT/KT) (MB)
THOMAS PT LIGHT  1000   55 62  300/ 12/ 15 1014.1R
BALT KEY BRIDGE  1000   57     290/ 13/ 16 1012.4R
COVE POINT       1000   56     320/ 18/ 23 1012.6R
LEWISETTA        1000   57 59  320/ 13/ 18 1013.4R
SOLOMONS ISLAND  1000      64                N/A
PINEY POINT      1000          330/ 24/ 26   N/A

$$




USA.gov is the U.S. government's official web portal to all federal, state and local government web resources and services.